Estación Meteorológica de la Universidad de Murcia
Estación Meteorológica de la Universidad de Murcia
Universidad de Murcia
 

Temperatura ambienteTemperatura ambiente

 

Máxima: 30,1 ºC a las 16:46:00 del día 21/08/2019
Mínima: 22 ºC a las 07:55:00 del día 21/08/2019

||Temperatura máxima últimos meses|| ---- ||Temperatura mínima últimos meses||


Temperatura máxima

  • 1 - 30,1 ºC del día 21/08/2019
  • 2 - 34,2 ºC del día 20/08/2019
  • 3 - 34,8 ºC del día 19/08/2019
  • 4 - 38,1 ºC del día 18/08/2019
  • 5 - 37,7 ºC del día 17/08/2019
  • 6 - 35 ºC del día 16/08/2019
  • 7 - 35,5 ºC del día 15/08/2019
  • 8 - 34,3 ºC del día 14/08/2019
  • 9 - 30,9 ºC del día 13/08/2019
  • 10 - 35,1 ºC del día 12/08/2019
  • 11 - 36,5 ºC del día 11/08/2019
  • 12 - 38,5 ºC del día 10/08/2019
  • 13 - 41,1 ºC del día 09/08/2019
  • 14 - 38,8 ºC del día 08/08/2019
  • 15 - 38,6 ºC del día 07/08/2019
  • 16 - 39,3 ºC del día 06/08/2019
  • 17 - 35,9 ºC del día 05/08/2019
  • 18 - 35,9 ºC del día 04/08/2019
  • 19 - 33,5 ºC del día 03/08/2019
  • 20 - 33,6 ºC del día 02/08/2019
  • 21 - 34,9 ºC del día 01/08/2019
  • 22 - 30,6 ºC del día 31/07/2019
  • 23 - 34 ºC del día 30/07/2019
  • 24 - 35,3 ºC del día 29/07/2019
  • 25 - 33,6 ºC del día 28/07/2019
  • 26 - 35,6 ºC del día 27/07/2019
  • 27 - 36,9 ºC del día 26/07/2019
  • 28 - 35,8 ºC del día 25/07/2019
  • 29 - 35,9 ºC del día 24/07/2019
  • 30 - 36,5 ºC del día 23/07/2019
  • 31 - 34,2 ºC del día 22/07/2019
  • 32 - 34,6 ºC del día 21/07/2019
  • 33 - 33,8 ºC del día 20/07/2019
  • 34 - 33,9 ºC del día 19/07/2019
  • 35 - 35,1 ºC del día 18/07/2019
  • 36 - 33,2 ºC del día 17/07/2019
  • 37 - 32,4 ºC del día 16/07/2019
  • 38 - 39,3 ºC del día 15/07/2019
  • 39 - 36,8 ºC del día 14/07/2019
  • 40 - 36,1 ºC del día 13/07/2019
  • 41 - 38,2 ºC del día 12/07/2019
  • 42 - 35,8 ºC del día 11/07/2019
  • 43 - 33,4 ºC del día 10/07/2019
  • 44 - 34,5 ºC del día 09/07/2019
  • 45 - 31,6 ºC del día 08/07/2019
  • 46 - 38,4 ºC del día 07/07/2019
  • 47 - 38,5 ºC del día 06/07/2019
  • 48 - 34,5 ºC del día 05/07/2019
  • 49 - 33 ºC del día 04/07/2019
  • 50 - 33 ºC del día 03/07/2019
  • 51 - 32 ºC del día 02/07/2019
  • 52 - 34,9 ºC del día 01/07/2019
  • 53 - 36,3 ºC del día 30/06/2019
  • 54 - 37,1 ºC del día 29/06/2019
  • 55 - 36 ºC del día 28/06/2019
  • 56 - 33,7 ºC del día 27/06/2019
  • 57 - 34,2 ºC del día 26/06/2019
  • 58 - 32,9 ºC del día 25/06/2019
  • 59 - 32,6 ºC del día 24/06/2019
  • 60 - 31,4 ºC del día 23/06/2019

||Volver al inicio de la página||


Temperatura mínima

  • 1 - 22 ºC del día 21/08/2019
  • 2 - 24 ºC del día 20/08/2019
  • 3 - 22,3 ºC del día 19/08/2019
  • 4 - 21,6 ºC del día 18/08/2019
  • 5 - 22,5 ºC del día 17/08/2019
  • 6 - 21,2 ºC del día 16/08/2019
  • 7 - 22 ºC del día 15/08/2019
  • 8 - 21,4 ºC del día 14/08/2019
  • 9 - 24 ºC del día 13/08/2019
  • 10 - 24,3 ºC del día 12/08/2019
  • 11 - 25,1 ºC del día 11/08/2019
  • 12 - 25,4 ºC del día 10/08/2019
  • 13 - 21,2 ºC del día 09/08/2019
  • 14 - 22,6 ºC del día 08/08/2019
  • 15 - 22,8 ºC del día 07/08/2019
  • 16 - 23,7 ºC del día 06/08/2019
  • 17 - 23,6 ºC del día 05/08/2019
  • 18 - 22,1 ºC del día 04/08/2019
  • 19 - 22,9 ºC del día 03/08/2019
  • 20 - 22,2 ºC del día 02/08/2019
  • 21 - 21,1 ºC del día 01/08/2019
  • 22 - 23 ºC del día 31/07/2019
  • 23 - 21,4 ºC del día 30/07/2019
  • 24 - 21,7 ºC del día 29/07/2019
  • 25 - 22,3 ºC del día 28/07/2019
  • 26 - 23 ºC del día 27/07/2019
  • 27 - 21 ºC del día 26/07/2019
  • 28 - 21 ºC del día 25/07/2019
  • 29 - 21,6 ºC del día 24/07/2019
  • 30 - 22,3 ºC del día 23/07/2019
  • 31 - 22,6 ºC del día 22/07/2019
  • 32 - 22,8 ºC del día 21/07/2019
  • 33 - 21,5 ºC del día 20/07/2019
  • 34 - 20,7 ºC del día 19/07/2019
  • 35 - 21,1 ºC del día 18/07/2019
  • 36 - 21,4 ºC del día 17/07/2019
  • 37 - 24,7 ºC del día 16/07/2019
  • 38 - 22,8 ºC del día 15/07/2019
  • 39 - 22,8 ºC del día 14/07/2019
  • 40 - 24,6 ºC del día 13/07/2019
  • 41 - 21,2 ºC del día 12/07/2019
  • 42 - 20,4 ºC del día 11/07/2019
  • 43 - 20,3 ºC del día 10/07/2019
  • 44 - 20,3 ºC del día 09/07/2019
  • 45 - 22,9 ºC del día 08/07/2019
  • 46 - 26,2 ºC del día 07/07/2019
  • 47 - 23,2 ºC del día 06/07/2019
  • 48 - 21,6 ºC del día 05/07/2019
  • 49 - 20,4 ºC del día 04/07/2019
  • 50 - 20,6 ºC del día 03/07/2019
  • 51 - 23,7 ºC del día 02/07/2019
  • 52 - 21 ºC del día 01/07/2019
  • 53 - 20,1 ºC del día 30/06/2019
  • 54 - 20,8 ºC del día 29/06/2019
  • 55 - 21 ºC del día 28/06/2019
  • 56 - 23,1 ºC del día 27/06/2019
  • 57 - 20,8 ºC del día 26/06/2019
  • 58 - 19,8 ºC del día 25/06/2019
  • 59 - 18,9 ºC del día 24/06/2019
  • 60 - 17,8 ºC del día 23/06/2019

 

|| Humedad relativa|| Velocidad y dirección del viento|| Precipitación|| Radiación Solar Global y PAR|| Temperatura y humedad del suelo|| Presión atmosférica|| Más información|| Volver a la página principal|| Volver al inicio de la página||


Estación Meteorológica de la Universidad de Murcia
http://estacion.um.es/
Informacion actualizada a: 22/08/2019 a las 06:44:00